When you browse on this site, cookies collect data to enhance your experience and personalize the content and advertising you see.
Visit our Privacy Policy to learn more. By continuing to use the site, you agree to this use of cookies and data.
  • In Switzerland
  • List of Countries
  • For 7 days
  • Water Temperature
  • Weather Map
  • Weather Widgets
  • user-avatar
    Login

    Hourly Weather Prisele

    Today, 20 October, Sunday

    Time Temperature Precipitation Wind Pressure Humidity
    00:00 +12°C° 0.2 mm 2 mps 746 mmHg 93%
    01:00 +12°C° 0.2 mm 2 mps 746 mmHg 94%
    02:00 +12°C° 0.2 mm 2 mps 747 mmHg 95%
    03:00 +12°C° 0.3 mm 2 mps 747 mmHg 94%
    04:00 +12°C° 0.3 mm 2 mps 746 mmHg 93%
    05:00 +12°C° 0.3 mm 2 mps 746 mmHg 92%
    06:00 +12°C° 0 mm 2 mps 746 mmHg 91%
    07:00 +12°C° 0 mm 2 mps 747 mmHg 91%
    08:00 +12°C° 0 mm 2 mps 747 mmHg 90%
    09:00 +13°C° 0 mm 2 mps 747 mmHg 87%
    10:00 +13°C° 0 mm 2 mps 747 mmHg 85%
    11:00 +13°C° 0 mm 3 mps 747 mmHg 82%
    12:00 +13°C° 0 mm 3 mps 747 mmHg 81%
    13:00 +14°C° 0 mm 3 mps 747 mmHg 80%
    14:00 +14°C° 0 mm 3 mps 747 mmHg 79%
    15:00 +14°C° 0 mm 2 mps 747 mmHg 82%
    16:00 +14°C° 0 mm 2 mps 747 mmHg 86%
    17:00 +13°C° 0 mm 2 mps 747 mmHg 90%
    18:00 +13°C° 0 mm 2 mps 747 mmHg 91%
    19:00 +13°C° 0 mm 2 mps 747 mmHg 91%
    20:00 +12°C° 0 mm 2 mps 747 mmHg 92%
    21:00 +13°C° 0 mm 2 mps 747 mmHg 91%
    22:00 +13°C° 0 mm 2 mps 747 mmHg 90%
    23:00 +13°C° 0 mm 2 mps 747 mmHg 90%

    Tomorrow, 21 October, Monday

    Time Temperature Precipitation Wind Pressure Humidity
    00:00 +12°C° 0 mm 2 mps 747 mmHg 90%
    01:00 +12°C° 0 mm 2 mps 747 mmHg 91%
    02:00 +12°C° 0 mm 2 mps 747 mmHg 92%
    03:00 +12°C° 0 mm 2 mps 746 mmHg 93%
    04:00 +10°C° 0 mm 2 mps 746 mmHg 94%
    05:00 +10°C° 0 mm 3 mps 746 mmHg 94%
    06:00 +10°C° 0 mm 2 mps 746 mmHg 94%
    07:00 +12°C° 0 mm 2 mps 746 mmHg 93%
    08:00 +12°C° 0 mm 2 mps 746 mmHg 93%
    09:00 +12°C° 0 mm 3 mps 746 mmHg 89%
    10:00 +13°C° 0 mm 3 mps 746 mmHg 85%
    11:00 +16°C° 0 mm 3 mps 746 mmHg 81%
    12:00 +16°C° 0 mm 3 mps 746 mmHg 81%
    13:00 +16°C° 0 mm 2 mps 746 mmHg 80%
    14:00 +17°C° 0 mm 2 mps 747 mmHg 80%
    15:00 +16°C° 0 mm 2 mps 746 mmHg 84%
    16:00 +15°C° 0 mm 2 mps 746 mmHg 88%
    17:00 +14°C° 0 mm 2 mps 746 mmHg 93%
    18:00 +14°C° 0 mm 2 mps 746 mmHg 94%
    19:00 +13°C° 0 mm 2 mps 746 mmHg 94%
    20:00 +13°C° 0 mm 2 mps 746 mmHg 95%
    21:00 +13°C° 0 mm 2 mps 747 mmHg 95%
    22:00 +13°C° 0 mm 1 mps 747 mmHg 95%
    23:00 +12°C° 0 mm 1 mps 747 mmHg 95%

    Day after tomorrow, 22 October, Tuesday

    Time Temperature Precipitation Wind Pressure Humidity
    00:00 +12°C° 0 mm 1 mps 747 mmHg 95%
    01:00 +11°C° 0 mm 1 mps 747 mmHg 95%
    02:00 +10°C° 0 mm 2 mps 748 mmHg 94%
    03:00 +10°C° 0 mm 1 mps 748 mmHg 95%
    04:00 +10°C° 0 mm 1 mps 748 mmHg 96%
    05:00 +9°C° 0 mm 1 mps 748 mmHg 96%
    06:00 +9°C° 0 mm 1 mps 749 mmHg 95%
    07:00 +9°C° 0 mm 1 mps 749 mmHg 94%
    08:00 +9°C° 0 mm 1 mps 749 mmHg 93%
    09:00 +11°C° 0 mm 1 mps 749 mmHg 87%
    10:00 +12°C° 0 mm 1 mps 749 mmHg 81%
    11:00 +12°C° 0 mm 0 mps 749 mmHg 76%
    12:00 +13°C° 0 mm 1 mps 749 mmHg 74%
    13:00 +14°C° 0 mm 1 mps 749 mmHg 73%
    14:00 +14°C° 0 mm 1 mps 749 mmHg 71%
    15:00 +13°C° 0 mm 1 mps 749 mmHg 77%
    16:00 +12°C° 0 mm 1 mps 748 mmHg 83%
    17:00 +11°C° 0 mm 1 mps 748 mmHg 89%
    18:00 +11°C° 0 mm 1 mps 748 mmHg 91%
    19:00 +11°C° 0 mm 1 mps 748 mmHg 93%
    20:00 +10°C° 0 mm 2 mps 748 mmHg 95%
    21:00 +10°C° 0 mm 2 mps 748 mmHg 95%
    22:00 +10°C° 0 mm 2 mps 747 mmHg 96%
    23:00 +10°C° 0 mm 2 mps 747 mmHg 97%

    23 October, Wednesday

    Time Temperature Precipitation Wind Pressure Humidity
    00:00 +10°C° 0 mm 2 mps 747 mmHg 97%
    01:00 +10°C° 0 mm 2 mps 747 mmHg 97%
    02:00 +10°C° 0 mm 2 mps 747 mmHg 97%
    03:00 +10°C° 0 mm 2 mps 747 mmHg 97%
    04:00 +10°C° 0 mm 2 mps 747 mmHg 97%
    05:00 +10°C° 0 mm 2 mps 746 mmHg 97%
    06:00 +10°C° 0 mm 2 mps 746 mmHg 96%
    07:00 +10°C° 0 mm 2 mps 746 mmHg 96%
    08:00 +10°C° 0 mm 2 mps 746 mmHg 95%
    09:00 +13°C° 0 mm 2 mps 746 mmHg 91%
    10:00 +13°C° 0 mm 3 mps 746 mmHg 86%
    11:00 +14°C° 0 mm 3 mps 745 mmHg 82%
    12:00 +16°C° 0 mm 3 mps 745 mmHg 81%
    13:00 +16°C° 0 mm 3 mps 745 mmHg 80%
    14:00 +16°C° 0 mm 2 mps 744 mmHg 79%
    15:00 +15°C° 0 mm 2 mps 744 mmHg 84%
    16:00 +14°C° 0 mm 2 mps 744 mmHg 88%
    17:00 +13°C° 0 mm 2 mps 744 mmHg 93%
    18:00 +13°C° 0 mm 2 mps 744 mmHg 94%
    19:00 +12°C° 0 mm 2 mps 744 mmHg 94%
    20:00 +12°C° 0 mm 2 mps 744 mmHg 95%
    21:00 +10°C° 0 mm 2 mps 744 mmHg 94%
    22:00 +10°C° 0 mm 2 mps 744 mmHg 94%
    23:00 +9°C° 0 mm 2 mps 744 mmHg 93%

    24 October, Thursday

    Time Temperature Precipitation Wind Pressure Humidity
    00:00 +9°C° 0 mm 2 mps 745 mmHg 91%
    01:00 +9°C° 0 mm 2 mps 745 mmHg 89%
    02:00 +10°C° 0 mm 1 mps 745 mmHg 87%
    03:00 +9°C° 0 mm 1 mps 745 mmHg 87%
    04:00 +9°C° 0 mm 1 mps 745 mmHg 88%
    05:00 +9°C° 0 mm 1 mps 745 mmHg 88%
    06:00 +8°C° 0 mm 2 mps 745 mmHg 87%
    07:00 +8°C° 0 mm 2 mps 746 mmHg 86%
    08:00 +8°C° 0 mm 2 mps 746 mmHg 85%
    09:00 +9°C° 0 mm 2 mps 746 mmHg 82%
    10:00 +10°C° 0 mm 3 mps 746 mmHg 79%
    11:00 +11°C° 0 mm 3 mps 746 mmHg 76%
    12:00 +12°C° 0 mm 3 mps 746 mmHg 75%
    13:00 +12°C° 0 mm 3 mps 746 mmHg 75%
    14:00 +12°C° 0 mm 3 mps 746 mmHg 74%
    15:00 +11°C° 0 mm 3 mps 746 mmHg 76%
    16:00 +11°C° 0 mm 3 mps 746 mmHg 77%
    17:00 +10°C° 0 mm 2 mps 746 mmHg 79%
    18:00 +10°C° 0 mm 2 mps 746 mmHg 79%
    19:00 +10°C° 0 mm 2 mps 746 mmHg 80%
    20:00 +11°C° 0 mm 1 mps 747 mmHg 80%
    21:00 +10°C° 0 mm 1 mps 747 mmHg 80%
    22:00 +10°C° 0 mm 1 mps 747 mmHg 80%
    23:00 +10°C° 0 mm 1 mps 747 mmHg 81%

    25 October, Friday

    Time Temperature Precipitation Wind Pressure Humidity
    00:00 +10°C° 0 mm 1 mps 747 mmHg 82%
    01:00 +10°C° 0 mm 1 mps 747 mmHg 83%
    02:00 +9°C° 0 mm 1 mps 747 mmHg 84%
    03:00 +9°C° 0 mm 1 mps 747 mmHg 87%
    04:00 +8°C° 0 mm 1 mps 747 mmHg 90%
    05:00 +6°C° 0 mm 2 mps 747 mmHg 93%
    06:00 +7°C° 0 mm 2 mps 747 mmHg 93%
    07:00 +7°C° 0 mm 2 mps 747 mmHg 93%
    08:00 +7°C° 0 mm 2 mps 747 mmHg 93%
    09:00 +8°C° 0 mm 2 mps 747 mmHg 87%
    10:00 +10°C° 0 mm 2 mps 747 mmHg 82%
    11:00 +11°C° 0 mm 3 mps 747 mmHg 77%
    12:00 +12°C° 0 mm 3 mps 747 mmHg 75%
    13:00 +12°C° 0 mm 3 mps 746 mmHg 73%
    14:00 +13°C° 0 mm 3 mps 746 mmHg 71%
    15:00 +12°C° 0 mm 3 mps 746 mmHg 76%
    16:00 +11°C° 0 mm 3 mps 745 mmHg 82%
    17:00 +10°C° 0 mm 3 mps 745 mmHg 87%
    18:00 +10°C° 0 mm 3 mps 745 mmHg 89%
    19:00 +10°C° 0 mm 3 mps 744 mmHg 91%
    20:00 +10°C° 0 mm 4 mps 744 mmHg 93%
    21:00 +10°C° 0 mm 4 mps 744 mmHg 92%
    22:00 +10°C° 0 mm 4 mps 744 mmHg 92%
    23:00 +11°C° 0 mm 4 mps 743 mmHg 92%
    Show more